STARLINK AG (44265 NORAD) Tracking and Keplerian Element Data

This shows tracking and keplerian element data for the satellite.

Feedback or suggestion? Click here.




ElementValue
Catalog44265
NameSTARLINK AG
Epoch Orbit466
Epoch Day173.88613546
Epoch Year2019
RAAN37.9651
Inclination53.0019
Eccentricity0.0001536
Argument of Perigee103.7815
Mean Anonmoly256.3344
Mean Motion15.05526349
Decay Rate1.701E-05
L11 44265U 19029AG 19173.88613546 .00001701 00000-0 13608-3 0 9994
L22 44265 53.0019 37.9651 0001536 103.7815 256.3344 15.05526349 4665

Live tracking and technical data element details for STARLINK AG (NORAD 44265). STARLINK AG can be tracked NOW for your location showing map with azimuth and elevation plus other details from your city location.

Track the satellite on the map from your city or location and see movement details for azimuth, elevation, latitude, longitude, range, height, and movement on the map or in text.







IsCatalogInMostPopularTable: catalog: 44265, numindb: 33
Update: records affected: 1



GetName: 44265 STARLINK AG

Hit Count: updated at: Fri, 19 Jul 2019 08:21:10 GMT